This demonstration page uses our WeatherBlox Daily Observations layout. Learn more.

Left ArrowRight Arrow

40.92945, -100.16068

Hourly Observations for May 17, 2015

Temp ( °F °C ) Dew Point ( °F °C ) Humidity (%) Winds ( mph kmh ) Pressure ( in mb ) Visibility ( mi km ) Precip ( " mm )
12:15 am 00:15 Mostly Cloudy 58 14.3 51 10.5 78 78 S 6 9 29.53 1000 10 16.0934 N/A
12:35 am 00:35 Cloudy 58 14.5 50 10.2 76 76 W 13 20 29.56 1001 10 16.0934 N/A
12:55 am 00:55 Cloudy 58 14.7 49 9.5 71 71 SSW 6 9 29.59 1002 10 16.0934 N/A
1:15 am 01:15 Partly Cloudy 57 14.1 49 9.6 75 75 WSW 5 7 29.59 1002 10 16.0934 N/A
1:35 am 01:35 Partly Cloudy 56 13.5 49 9.5 77 77 SW 7 11 29.59 1002 10 16.0934 N/A
1:55 am 01:55 Partly Cloudy 56 13.3 49 9.7 79 79 SSW 6 9 29.59 1002 10 16.0934 N/A
2:15 am 02:15 Partly Cloudy 55 12.5 50 9.9 84 84 SSW 3 6 29.59 1002 10 16.0934 N/A
2:35 am 02:35 Mostly Cloudy with Rain 55 12.7 51 10.6 87 87 SSW 6 9 29.59 1002 10 16.0934 N/A
2:55 am 02:55 Mostly Cloudy 55 12.5 50 10.2 86 86 N N/A 29.59 1002 10 16.0934 N/A
3:15 am 03:15 Partly Cloudy 52 11.2 49 9.5 89 89 SSW 3 6 29.62 1003 10 16.0934 N/A
3:35 am 03:35 Clear 51 10.5 48 9 91 91 SSE 3 6 29.62 1003 10 16.0934 N/A
3:55 am 03:55 Clear 52 10.9 49 9.5 91 91 N N/A 29.62 1003 10 16.0934 N/A
4:15 am 04:15 Clear 52 11.1 49 9.4 89 89 N N/A 29.62 1003 10 16.0934 N/A
4:35 am 04:35 Clear 49 9.6 47 8.1 90 90 E 5 7 29.62 1003 10 16.0934 N/A
4:55 am 04:55 Clear 49 9.7 48 8.7 94 94 ESE 7 11 29.62 1003 10 16.0934 N/A
5:15 am 05:15 Clear 51 10.3 48 9.1 92 92 S 3 6 29.62 1003 10 16.0934 N/A
5:35 am 05:35 Clear 51 10.3 49 9.2 93 93 SW 5 7 29.62 1003 10 16.0934 N/A
5:55 am 05:55 Partly Cloudy 51 10.6 49 9.5 93 93 W 3 6 29.62 1003 10 16.0934 N/A
6:15 am 06:15 Mostly Cloudy 52 10.9 49 9.7 92 92 WSW 3 6 29.62 1003 10 16.0934 N/A
6:35 am 06:35 Mostly Cloudy 52 11.3 50 10.2 93 93 SSW 3 6 29.65 1004 10 16.0934 N/A
6:55 am 06:55 Partly Cloudy 52 11.2 50 10.2 94 94 SSE 6 9 29.62 1003 10 16.0934 N/A
7:15 am 07:15 Partly Cloudy 53 11.8 51 10.8 94 94 SW 14 22 29.65 1004 10 16.0934 N/A
7:35 am 07:35 Partly Cloudy 53 11.9 51 10.6 92 92 SW 12 19 29.65 1004 10 16.0934 N/A
7:55 am 07:55 Sunny 54 12 51 10.6 91 91 SW 7 11 29.65 1004 10 16.0934 N/A
8:15 am 08:15 Sunny 54 12.1 51 10.8 92 92 SW 7 11 29.65 1004 10 16.0934 N/A
8:35 am 08:35 Sunny 55 12.7 52 11.2 91 91 WSW 9 15 29.68 1005 10 16.0934 N/A
8:55 am 08:55 Sunny 58 14.3 53 11.9 86 86 WSW 10 17 29.65 1004 10 16.0934 N/A
9:15 am 09:15 Sunny 60 15.6 54 12.2 80 80 WSW 13 20 29.65 1004 10 16.0934 N/A
9:35 am 09:35 Sunny 62 16.5 54 12 75 75 WSW 13 20 29.62 1003 10 16.0934 N/A
9:55 am 09:55 Sunny 64 17.5 55 12.6 73 73 WSW 10 17 29.62 1003 10 16.0934 N/A
10:15 am 10:15 Sunny 65 18.1 53 11.8 67 67 W 12 19 29.62 1003 10 16.0934 N/A
10:35 am 10:35 Sunny 67 19.2 54 12.2 64 64 W 15 24 29.62 1003 10 16.0934 N/A
10:55 am 10:55 Sunny 67 19.6 52 10.9 57 57 WNW 15 24 29.65 1004 10 16.0934 N/A
11:15 am 11:15 Sunny 68 20.1 53 11.4 57 57 WNW 13 20 29.65 1004 10 16.0934 N/A
11:35 am 11:35 Sunny 68 20.1 52 11 56 56 NW 13 20 29.65 1004 10 16.0934 N/A
11:55 am 11:55 Sunny 69 20.4 53 11.5 57 57 WNW 16 26 29.65 1004 10 16.0934 N/A
12:15 pm 12:15 Sunny 70 21 53 11.4 54 54 WNW 17 28 29.65 1004 10 16.0934 N/A
12:35 pm 12:35 Partly Cloudy 70 21 53 11.6 55 55 NW 13 20 29.65 1004 10 16.0934 N/A
12:55 pm 12:55 Partly Cloudy 71 21.7 53 11.6 53 53 W 14 22 29.65 1004 10 16.0934 N/A
1:15 pm 13:15 Partly Cloudy 71 21.8 53 11.5 52 52 W 9 15 29.65 1004 10 16.0934 N/A
1:35 pm 13:35 Sunny 72 22.2 53 11.4 51 51 W 16 26 29.68 1005 10 16.0934 N/A
1:55 pm 13:55 Sunny 72 22.4 51 10.8 48 48 WNW 17 28 29.68 1005 10 16.0934 N/A
2:15 pm 14:15 Sunny 73 22.9 51 10.7 46 46 WNW 16 26 29.68 1005 10 16.0934 N/A
2:35 pm 14:35 Sunny 74 23.2 52 10.9 46 46 WNW 17 28 29.68 1005 10 16.0934 N/A
2:55 pm 14:55 Sunny 73 22.7 49 9.4 43 43 W 14 22 29.68 1005 10 16.0934 N/A
3:15 pm 15:15 Sunny 74 23.6 49 9.4 41 41 W 15 24 29.71 1006 10 16.0934 N/A
3:35 pm 15:35 Sunny 73 22.9 50 10 44 44 NW 17 28 29.71 1006 10 16.0934 N/A
3:55 pm 15:55 Sunny 74 23.1 50 10.1 44 44 WNW 10 17 29.71 1006 10 16.0934 N/A
4:15 pm 16:15 Sunny 74 23.6 51 10.8 45 45 NNW 10 17 29.71 1006 10 16.0934 N/A
4:35 pm 16:35 Partly Cloudy 73 23 52 11.1 47 47 WNW 12 19 29.71 1006 10 16.0934 N/A
4:55 pm 16:55 Sunny 72 22.1 49 9.7 45 45 WNW 12 19 29.74 1007 10 16.0934 N/A
5:15 pm 17:15 Partly Cloudy with Light Rain 70 21.3 55 12.8 59 59 SW 9 15 29.77 1008 7 11.26538 0.01 0.254
5:35 pm 17:35 Mostly Cloudy 66 19.1 51 10.8 59 59 NW 24 39 29.8 1009 10 16.0934 0.01 0.254
5:55 pm 17:55 Partly Cloudy 62 16.6 51 10.3 67 67 NNW 23 37 29.85 1011 10 16.0934 0.01 0.254
6:15 pm 18:15 Mostly Cloudy with Light Rain 62 16.7 52 10.9 69 69 NNW 15 24 29.85 1011 10 16.0934 N/A
6:35 pm 18:35 Mostly Cloudy 62 16.5 53 11.5 72 72 N N/A 29.85 1011 10 16.0934 N/A
6:55 pm 18:55 Partly Cloudy 64 17.8 54 12.3 70 70 N N/A 29.85 1011 10 16.0934 N/A
7:15 pm 19:15 Sunny 66 18.8 55 12.7 68 68 N N/A 29.83 1010 10 16.0934 N/A
7:35 pm 19:35 Sunny 66 19 53 11.6 62 62 NW 7 11 29.83 1010 10 16.0934 N/A
7:55 pm 19:55 Sunny 66 19 53 11.9 64 64 W 6 9 29.88 1012 10 16.0934 N/A
8:15 pm 20:15 Sunny 66 18.7 54 12.2 66 66 WNW 5 7 29.88 1012 10 16.0934 N/A
8:35 pm 20:35 Sunny 64 18 54 12.3 69 69 W 5 7 29.91 1013 10 16.0934 N/A
8:55 pm 20:55 Clear 62 16.8 54 12 73 73 WNW 6 9 29.91 1013 10 16.0934 N/A
9:15 pm 21:15 Clear 59 15 53 11.4 79 79 NW 6 9 29.97 1015 10 16.0934 N/A
9:35 pm 21:35 Clear 59 15.1 53 11.5 79 79 N 9 15 29.97 1015 10 16.0934 N/A
9:55 pm 21:55 Clear 57 14.1 52 11.1 82 82 N 7 11 30 1016 10 16.0934 N/A
10:15 pm 22:15 Clear 57 14 52 11 82 82 N 8 13 30 1016 10 16.0934 N/A
10:35 pm 22:35 Clear 56 13.1 51 10.6 85 85 N 7 11 30.03 1017 10 16.0934 N/A
10:55 pm 22:55 Partly Cloudy 56 13.1 51 10.8 86 86 NNW 9 15 30.03 1017 10 16.0934 N/A
11:15 pm 23:15 Partly Cloudy 56 13.1 51 10.7 86 86 NNW 9 15 30.06 1018 10 16.0934 N/A
11:35 pm 23:35 Clear 56 13.2 51 10.5 84 84 NNW 10 17 30.06 1018 10 16.0934 N/A
11:55 pm 23:55 Clear 55 13 50 10 82 82 NNW 8 13 30.09 1019 10 16.0934 N/A

Powered by AerisWeather